CFG579 EDVK-EDLW

Flight info

Callsign CFG579
Flight time 0h 16m
Altitude 16000
Route WRB1E WRB T854 TINSA DCT ELVUL
Aircraft A320/M-SDE3FGHIRWY/LB1

Departure

Time 2026-05-07 16:36
Airport Kassel Airport (EDVK)

Arrival

Time 2026-05-07 16:52
Airport Dortmund Airport (EDLW)
Time Latitude Longitude Altitude Speed Heading
2026-05-07 16:18 51.41824 9.38737 852 ft 0 kts 275°
2026-05-07 16:31 51.41832 9.38738 864 ft 3 kts
2026-05-07 16:31 51.41861 9.38804 854 ft 13 kts 56°
2026-05-07 16:32 51.41928 9.38914 862 ft 15 kts 76°
2026-05-07 16:32 51.41929 9.39086 864 ft 16 kts 95°
2026-05-07 16:32 51.41918 9.39276 864 ft 18 kts 95°
2026-05-07 16:32 51.41906 9.39489 864 ft 20 kts 95°
2026-05-07 16:33 51.41894 9.39728 852 ft 23 kts 95°
2026-05-07 16:33 51.41880 9.39994 854 ft 25 kts 95°
2026-05-07 16:33 51.41871 9.40279 864 ft 26 kts 82°
2026-05-07 16:33 51.41869 9.40410 859 ft 17 kts 107°
2026-05-07 16:34 51.41846 9.40649 864 ft 23 kts 96°
2026-05-07 16:34 51.41836 9.40894 857 ft 18 kts 83°
2026-05-07 16:34 51.41929 9.40967 859 ft 18 kts
2026-05-07 16:34 51.41995 9.40903 864 ft 7 kts 257°
2026-05-07 16:35 51.41993 9.40820 864 ft 7 kts 271°
2026-05-07 16:35 51.41999 9.40687 854 ft 29 kts 276°
2026-05-07 16:35 51.42042 9.39905 860 ft 107 kts 275°
2026-05-07 16:35 51.42130 9.38412 892 ft 160 kts 272°
2026-05-07 16:36 51.42237 9.36614 1575 ft 161 kts 276°
2026-05-07 16:36 51.42323 9.34814 2402 ft 159 kts 278°
2026-05-07 16:36 51.42412 9.33114 3169 ft 154 kts 278°
2026-05-07 16:36 51.42500 9.31442 3932 ft 143 kts 278°
2026-05-07 16:37 51.42579 9.29919 4643 ft 134 kts 278°
2026-05-07 16:37 51.42664 9.28360 5185 ft 152 kts 278°
2026-05-07 16:37 51.42767 9.26541 5762 ft 184 kts 278°
2026-05-07 16:37 51.42887 9.24369 6348 ft 206 kts 277°
2026-05-07 16:38 51.43017 9.21941 6860 ft 229 kts 277°
2026-05-07 16:38 51.43150 9.19386 7705 ft 230 kts 276°
2026-05-07 16:38 51.43282 9.16819 8581 ft 233 kts 276°
2026-05-07 16:38 51.43414 9.14221 9508 ft 234 kts 276°
2026-05-07 16:39 51.43552 9.11608 10358 ft 237 kts 277°
2026-05-07 16:39 51.43975 9.09015 11014 ft 248 kts 291°
2026-05-07 16:39 51.44442 9.06221 11392 ft 273 kts 281°
2026-05-07 16:39 51.44679 9.03099 11750 ft 296 kts 276°
2026-05-07 16:40 51.44842 8.99670 12061 ft 320 kts 275°
2026-05-07 16:40 51.44994 8.96344 12294 ft 342 kts 275°
2026-05-07 16:40 51.45203 8.92411 12483 ft 365 kts 276°
2026-05-07 16:40 51.45465 8.88312 12807 ft 380 kts 277°
2026-05-07 16:41 51.45774 8.84063 13360 ft 390 kts 277°
2026-05-07 16:41 51.46119 8.79669 13670 ft 403 kts 278°
2026-05-07 16:41 51.46479 8.75192 13907 ft 404 kts 278°
2026-05-07 16:41 51.46844 8.70627 14047 ft 408 kts 277°
2026-05-07 16:42 51.47200 8.66102 14079 ft 410 kts 277°
2026-05-07 16:42 51.47548 8.61631 14086 ft 409 kts 277°
2026-05-07 16:42 51.47895 8.57094 14085 ft 409 kts 277°
2026-05-07 16:42 51.48235 8.52556 14082 ft 407 kts 277°
2026-05-07 16:43 51.48570 8.48035 14083 ft 408 kts 277°
2026-05-07 16:43 51.48906 8.43499 14068 ft 408 kts 277°
2026-05-07 16:43 51.49238 8.39029 14066 ft 409 kts 277°
2026-05-07 16:43 51.49578 8.34446 14078 ft 409 kts 277°
2026-05-07 16:44 51.49906 8.29980 13917 ft 399 kts 277°
2026-05-07 16:44 51.50214 8.25729 13342 ft 373 kts 277°
2026-05-07 16:44 51.50509 8.21664 12307 ft 362 kts 277°
2026-05-07 16:44 51.50794 8.17696 11342 ft 352 kts 277°
2026-05-07 16:45 51.51070 8.13849 10427 ft 342 kts 277°
2026-05-07 16:45 51.51338 8.10106 9504 ft 333 kts 277°
2026-05-07 16:45 51.51602 8.06472 8589 ft 323 kts 278°
2026-05-07 16:45 51.52231 8.03070 7502 ft 317 kts 298°
2026-05-07 16:46 51.53519 8.00172 6078 ft 323 kts 312°
2026-05-07 16:46 51.55129 7.97615 4593 ft 327 kts 319°
2026-05-07 16:46 51.56237 7.96036 3916 ft 321 kts 319°
2026-05-07 16:46 51.57857 7.93733 3404 ft 298 kts 319°
2026-05-07 16:47 51.59311 7.91554 3190 ft 270 kts 317°
2026-05-07 16:47 51.60451 7.89406 3066 ft 239 kts 295°
2026-05-07 16:47 51.60625 7.87058 2995 ft 210 kts 256°
2026-05-07 16:47 51.60088 7.84898 2999 ft 202 kts 244°
2026-05-07 16:48 51.59425 7.82918 3007 ft 202 kts 242°
2026-05-07 16:48 51.58757 7.80999 3033 ft 186 kts 242°
2026-05-07 16:48 51.58152 7.79268 2845 ft 170 kts 242°
2026-05-07 16:48 51.57606 7.77705 2631 ft 156 kts 242°
2026-05-07 16:49 51.57088 7.76221 2422 ft 149 kts 240°
2026-05-07 16:49 51.56589 7.74793 2223 ft 148 kts 240°
2026-05-07 16:49 51.56087 7.73355 2027 ft 147 kts 240°
2026-05-07 16:49 51.55585 7.71921 1828 ft 146 kts 240°
2026-05-07 16:50 51.55088 7.70504 1630 ft 145 kts 240°
2026-05-07 16:50 51.54596 7.69098 1413 ft 145 kts 240°
2026-05-07 16:50 51.54103 7.67692 1213 ft 145 kts 240°
2026-05-07 16:50 51.53608 7.66281 1023 ft 143 kts 241°
2026-05-07 16:51 51.53123 7.64897 822 ft 143 kts 240°
2026-05-07 16:51 51.52634 7.63498 576 ft 141 kts 240°
2026-05-07 16:51 51.52142 7.62121 437 ft 141 kts 240°
2026-05-07 16:51 51.51731 7.60945 416 ft 83 kts 242°
2026-05-07 16:52 51.51599 7.60561 416 ft 1 kts 240°
2026-05-07 16:52 51.51583 7.60517 413 ft 18 kts 240°
2026-05-07 16:52 51.51483 7.60284 423 ft 28 kts 222°
2026-05-07 16:52 51.51366 7.60362 422 ft 15 kts 98°
2026-05-07 16:53 51.51389 7.60474 421 ft 0 kts 66°
2026-05-07 16:54 51.51411 7.60537 425 ft 11 kts 60°
2026-05-07 16:55 51.51452 7.60654 422 ft 14 kts 60°
2026-05-07 16:55 51.51505 7.60797 424 ft 17 kts 59°
2026-05-07 16:55 51.51565 7.60968 423 ft 18 kts 62°
2026-05-07 16:55 51.51581 7.61123 421 ft 11 kts 116°
2026-05-07 16:56 51.51580 7.61128 422 ft 0 kts 116°